Regional Weather Roundup
Issued by NWS Sterling, VA

Home | Current Version | Previous Version | Text Only | Print | Product List | Glossary Off
Versions: 1 2 3 4 5 6 7 8 9 10 11 12 13 14 15 16 17 18 19 20 21 22 23 24 25 26 27 28 29 30 31 32 33 34 35 36 37 38 39 40 41 42 43 44 45 46 47 48 49 50

000
ASUS41 KLWX 222211
RWRLWX

REGIONAL WEATHER ROUNDUP
NATIONAL WEATHER SERVICE BALTIMORE MD/WASHINGTON DC
600 PM EDT FRI SEP 22 2017

Note: "FAIR" indicates few or no clouds below 12,000 feet
with no significant weather and/or obstructions to visibility.
 TC=TEMPERATURE CELSIUS

 * =Non NWS site. Station does not report precipitation (e.g. rain,
    snow, etc.), thunder, or fog.

DCZ001-MDZ009-015-VAZ040>042-051-053>054-222300-
WASHINGTON METRO

CITY           SKY/WX    TMP DP  RH WIND       PRES   REMARKS
WASHINGTON NAT CLOUDY    81  66  60 NW10      29.99S
DULLES         PTSUNNY   79  65  62 NW6       30.00F
ANDREWS AFB    CLOUDY    78  62  57 N9        29.98F
FT BELVOIR     PTSUNNY   81  64  56 NW6       29.99S
QUANTICO       CLOUDY    81  66  60 N5        30.00S
COLLEGE PARK*  CLOUDY    76  67  73 CALM      29.99S
LEESBURG*      CLOUDY    81  68  65 NW3       30.01S
MANASSAS*      PTSUNNY   79  65  62 N5        30.00F
GAITHERSBURG*  CLOUDY    76  67  73 CALM      30.02S

$$

MDZ006>007-011-014-222300-
BALTIMORE METRO

CITY           SKY/WX    TMP DP  RH WIND       PRES   REMARKS
BWI AIRPORT    CLOUDY    77  65  66 CALM      29.98F
MD SCIENCE CTR   N/A     81  63  54 MISG      29.98F
MARTIN STATE   PTSUNNY   77  70  78 W7        29.99S
ANNAPOLIS      CLOUDY    79  68  69 NW3       29.98S
FORT MEADE*    CLOUDY    72  64  78 CALM      30.01S

$$

MDZ012-015-019>023-222300-
MARYLAND EASTERN SHORE

CITY           SKY/WX    TMP DP  RH WIND       PRES   REMARKS
OCEAN CITY     PTSUNNY   76  66  71 NW5       29.97R
SALISBURY      MOSUNNY   77  65  66 NW6       29.97R
CAMBRIDGE*     SUNNY     81  68  65 N8        29.97S
EASTON*        PTSUNNY   81  63  54 N5        30.02R

$$

MDZ017>025-222300-
SOUTHERN MARYLAND

CITY           SKY/WX    TMP DP  RH WIND       PRES   REMARKS
PATUXENT RIVER PTSUNNY   79  66  64 NW5       29.98R
ST INIGOES     CLOUDY    78  68  71 W5        29.98R
LEONARDTOWN*   PTSUNNY   75  68  78 CALM      30.00R

$$

MDZ003>005-222300-
NORTH CENTRAL MARYLAND

CITY           SKY/WX    TMP DP  RH WIND       PRES   REMARKS
FREDERICK*     SUNNY     81  64  57 CALM      30.03S
HAGERSTOWN APT MOSUNNY   86  55  34 N10       30.01S
WESTMINSTER*   MOSUNNY   79  63  57 N3        30.02S

$$

MDZ501>502-222300-
WESTERN MARYLAND

CITY           SKY/WX    TMP DP  RH WIND       PRES   REMARKS
OAKLAND*       SUNNY     72  57  60 N5        30.14F
CUMBERLAND*    MOSUNNY   88  50  27 NW7       30.06F

$$

VAZ025>031-222300-
SHENANDOAH VALLEY

CITY           SKY/WX    TMP DP  RH WIND       PRES   REMARKS
WINCHESTER*    CLOUDY    77  63  61 CALM      30.02S
FRONT ROYAL*   CLOUDY    79  66  65 CALM      30.02S
LURAY*         CLOUDY    82  61  47 E3        30.03R
NEW MARKET*    MOSUNNY   83  58  41 NE5       30.02R
STAUNTON*      MOSUNNY   82  63  52 CALM      30.06S
WAYNESBORO*    PTSUNNY   79  67  65 CALM      30.06S

$$

WVZ021-048>050-054>055-222300-
EASTERN WEST VIRGINIA PANHANDLE

CITY           SKY/WX    TMP DP  RH WIND       PRES   REMARKS
MARTINSBURG    CLOUDY    81  62  52 CALM      30.00F
PETERSBURG*    CLOUDY    83  65  55 CALM      30.04S

$$

VAZ036>039-050-222300-
CENTRAL FOOTHILLS

CITY           SKY/WX    TMP DP  RH WIND       PRES   REMARKS
CHARLOTTESVILL CLOUDY    83  65  54 NE5       30.01S
CULPEPER*      CLOUDY    81  67  63 CALM      30.01S
ORANGE*        CLOUDY    81  63  54 CALM      30.01S
GORDONSVILLE*  CLOUDY    80  70  71 CALM      30.01S
WARRENTON*     CLOUDY    80  61  52 CALM      30.00S

$$

VAZ055>057-222300-
NORTH AND CENTRAL PIEDMONT

CITY           SKY/WX    TMP DP  RH WIND       PRES   REMARKS
FREDERICKSBRG* PTSUNNY   81  65  57 N6        29.99S
STAFFORD*      MOSUNNY   77  69  77 CALM      30.04R

$$

NCZ024-NYZ072-PAZ021-071-VAZ022-071-222300-
OTHER REGIONAL OBSERVATIONS

CITY           SKY/WX    TMP DP  RH WIND       PRES   REMARKS
NEW YORK CITY  MOCLDY    79  55  43 VRB7      29.97S
PHILADELPHIA   PTSUNNY   81  56  42 N8        29.95S
PITTSBURGH     CLOUDY    86  53  32 N7        30.08S
ROANOKE        PTSUNNY   83  56  39 SE3       30.05F
RICHMOND       PTSUNNY   80  65  59 NW5       29.99F
RALEIGH        MOSUNNY   86  61  42 NE5       29.99F

$$

ANZ530>537-222300-
MARINE OBSERVATIONS

STATION/POSITION TIME  TEMP    WIND        PRES
                       AIR SEA DIR/SP/G
                 (UTC) (F)     (DEG/KT/KT) (MB)
THOMAS PT LIGHT  2200   78 76  350/  5/  5   N/A
BALT KEY BRIDGE  2148   79     310/  7/  8 1015.0F
COVE POINT       2148   78     350/  6/  7 1015.8R
LEWISETTA        2148   79 77  330/  8/  9 1015.3R
SOLOMONS ISLAND  2148   79 76  320/  3/  5 1014.8R
PINEY POINT      2142          310/ 10/ 11   N/A

$$




USA.gov is the U.S. government's official web portal to all federal, state and local government web resources and services.